Location: Bishopstone
(51.0167°N, 1.9000°W)
Time: 02:53:01
(UTC+00:00)

Cosmos 2219 - Pass Details

Date: 16 September 2019
Orbit: 834 x 860 km, 71.1° (Epoch: 18 October)

Event Time Altitude Azimuth Distance (km) Brightness Sun altitude
Rises 21:12:21 0° 221° (SW) 3,425 6.4 -25.4°
Reaches altitude 10° 21:14:50 10° 225° (SW) 2,493 5.7 -25.7°
Maximum altitude 21:20:30 60° 305° (NW) 986 3.7 -26.4°
Drops below altitude 10° 21:26:12 10° 25° (NNE) 2,503 5.9 -27.0°
Sets 21:28:42 0° 29° (NNE) 3,440 6.6 -27.3°
